User: anonymous   Login
Location: Unspecified
(0.0000°N, 0.0000°E)
Time: 00:37:00
(UTC+00:00)
Language:

OPTOS - Orbit

View from above orbital plane
View from above orbital plane
View from above satellite
View from above satellite

Ground track
Ground track

The orbit data is extracted from the following two-line orbital elements,

1 39429U 13066P   17206.56391653 +.00000226 +00000-0 +49291-4 0  9996
2 39429 097.6624 205.2261 0145406 274.1438 084.3152 14.60485234195724
Epoch (UTC): 25 July 2017 13:32:02
Eccentricity: 0.0145406
inclination: 97.6624°
perigee height: 589 km
apogee height: 794 km
right ascension of ascending node: 205.2261°
argument of perigee: 274.1438°
revolutions per day: 14.60485234
mean anomaly at epoch: 84.3152°
orbit number at epoch: 19572

The dashed part of the orbit path shows where the satellite is in the earth's shadow,  

DLR